contact:dominique.lefevre@mio.osupytheas.fr, maurice.libes@osupytheas.fr, didier.mallarino@osupytheas.fr
Project:EMSO http://www.emso-fr.org/EMSO-France
Depth: 2436.0 m
Title:EMSO Ligure Ouest : Data MII capteur MICROCAT
DateTime_Computer,Latitude,Longitude,Temperature,Conductivity,Pressure,DateTime_Instrument
DateTime_Computer,Latitude,Longitude,degC,S m-1,dbar,DateTime_Instrument
2022-02-16T00:01:51Z,42.805,6.029,13.3001,4.60029,2470.437,2022-2-16T02:03:24Z
2022-02-16T00:04:54Z,42.805,6.029,13.3002,4.60028,2470.413,2022-2-16T02:06:27Z
2022-02-16T00:07:57Z,42.805,6.029,13.2999,4.60029,2470.39,2022-2-16T02:09:30Z
2022-02-16T00:11:00Z,42.805,6.029,13.2999,4.60029,2470.404,2022-2-16T02:12:33Z
2022-02-16T00:14:03Z,42.805,6.029,13.3004,4.60028,2470.413,2022-2-16T02:15:37Z
2022-02-16T00:17:06Z,42.805,6.029,13.3000,4.60029,2470.39,2022-2-16T02:18:40Z
2022-02-16T00:20:09Z,42.805,6.029,13.2999,4.60028,2470.413,2022-2-16T02:21:43Z
2022-02-16T00:23:12Z,42.805,6.029,13.2998,4.60029,2470.404,2022-2-16T02:24:46Z
2022-02-16T00:26:16Z,42.805,6.029,13.2999,4.60029,2470.45,2022-2-16T02:27:49Z
2022-02-16T00:29:19Z,42.805,6.029,13.3003,4.60029,2470.366,2022-2-16T02:30:52Z
2022-02-16T00:32:22Z,42.805,6.029,13.2999,4.60032,2470.39,2022-2-16T02:33:55Z
2022-02-16T00:35:25Z,42.805,6.029,13.3004,4.60029,2470.404,2022-2-16T02:36:58Z
2022-02-16T00:38:28Z,42.805,6.029,13.3003,4.60030,2470.39,2022-2-16T02:40:02Z
2022-02-16T00:41:31Z,42.805,6.029,13.3000,4.60029,2470.39,2022-2-16T02:43:05Z
2022-02-16T00:44:34Z,42.805,6.029,13.3000,4.60029,2470.39,2022-2-16T02:46:08Z
2022-02-16T00:47:37Z,42.805,6.029,13.3001,4.60029,2470.38,2022-2-16T02:49:11Z
2022-02-16T00:50:41Z,42.805,6.029,13.3003,4.60029,2470.366,2022-2-16T02:52:14Z
2022-02-16T00:53:44Z,42.805,6.029,13.2999,4.60029,2470.343,2022-2-16T02:55:17Z
2022-02-16T00:56:47Z,42.805,6.029,13.3003,4.60029,2470.39,2022-2-16T02:58:20Z
2022-02-16T00:59:50Z,42.805,6.029,13.3000,4.60029,2470.366,2022-2-16T03:01:23Z
2022-02-16T01:02:53Z,42.805,6.029,13.2999,4.60029,2470.366,2022-2-16T03:04:27Z
2022-02-16T01:05:56Z,42.805,6.029,13.3000,4.60029,2470.343,2022-2-16T03:07:30Z
2022-02-16T01:08:59Z,42.805,6.029,13.3004,4.60031,2470.38,2022-2-16T03:10:33Z
2022-02-16T01:12:02Z,42.805,6.029,13.3000,4.60029,2470.32,2022-2-16T03:13:36Z
2022-02-16T01:15:05Z,42.805,6.029,13.3000,4.60029,2470.32,2022-2-16T03:16:39Z
2022-02-16T01:18:09Z,42.805,6.029,13.3001,4.60029,2470.357,2022-2-16T03:19:42Z
2022-02-16T01:21:12Z,42.805,6.029,13.2999,4.60028,2470.343,2022-2-16T03:22:45Z
2022-02-16T01:24:15Z,42.805,6.029,13.3000,4.60028,2470.334,2022-2-16T03:25:48Z
2022-02-16T01:27:18Z,42.805,6.029,13.3004,4.60028,2470.343,2022-2-16T03:28:52Z
2022-02-16T01:30:21Z,42.805,6.029,13.3004,4.60029,2470.357,2022-2-16T03:31:55Z
2022-02-16T01:33:24Z,42.805,6.029,13.3001,4.60029,2470.366,2022-2-16T03:34:58Z
2022-02-16T01:36:27Z,42.805,6.029,13.3004,4.60029,2470.334,2022-2-16T03:38:01Z
2022-02-16T01:39:30Z,42.805,6.029,13.2998,4.60029,2470.343,2022-2-16T03:41:04Z
2022-02-16T01:42:34Z,42.805,6.029,13.2998,4.60031,2470.357,2022-2-16T03:44:07Z
2022-02-16T01:45:37Z,42.805,6.029,13.3003,4.60029,2470.343,2022-2-16T03:47:10Z
2022-02-16T01:48:40Z,42.805,6.029,13.3002,4.60029,2470.32,2022-2-16T03:50:13Z
2022-02-16T01:51:43Z,42.805,6.029,13.3006,4.60028,2470.297,2022-2-16T03:53:17Z
2022-02-16T01:54:46Z,42.805,6.029,13.2998,4.60029,2470.343,2022-2-16T03:56:20Z
2022-02-16T01:57:49Z,42.805,6.029,13.2999,4.60028,2470.287,2022-2-16T03:59:23Z
2022-02-16T02:00:52Z,42.805,6.029,13.3001,4.60030,2470.264,2022-2-16T04:02:26Z
2022-02-16T02:03:55Z,42.805,6.029,13.3004,4.60029,2470.26,2022-2-16T04:05:29Z
2022-02-16T02:06:59Z,42.805,6.029,13.3002,4.60029,2470.334,2022-2-16T04:08:32Z
2022-02-16T02:10:02Z,42.805,6.029,13.3002,4.60029,2470.273,2022-2-16T04:11:35Z
2022-02-16T02:13:05Z,42.805,6.029,13.3004,4.60029,2470.31,2022-2-16T04:14:38Z
2022-02-16T02:16:08Z,42.805,6.029,13.3000,4.60028,2470.273,2022-2-16T04:17:42Z
2022-02-16T02:19:11Z,42.805,6.029,13.3000,4.60029,2470.287,2022-2-16T04:20:45Z
2022-02-16T02:22:14Z,42.805,6.029,13.3002,4.60028,2470.297,2022-2-16T04:23:48Z
2022-02-16T02:25:17Z,42.805,6.029,13.3004,4.60028,2470.31,2022-2-16T04:26:51Z
2022-02-16T02:28:20Z,42.805,6.029,13.3003,4.60029,2470.297,2022-2-16T04:29:54Z
2022-02-16T02:31:24Z,42.805,6.029,13.3000,4.60029,2470.297,2022-2-16T04:32:57Z
2022-02-16T02:34:27Z,42.805,6.029,13.3003,4.60030,2470.273,2022-2-16T04:36:00Z
2022-02-16T02:37:30Z,42.805,6.029,13.3003,4.60029,2470.32,2022-2-16T04:39:03Z
2022-02-16T02:40:33Z,42.805,6.029,13.3002,4.60031,2470.32,2022-2-16T04:42:07Z
2022-02-16T02:43:36Z,42.805,6.029,13.3001,4.60030,2470.273,2022-2-16T04:45:10Z
2022-02-16T02:46:39Z,42.805,6.029,13.3000,4.60028,2470.273,2022-2-16T04:48:13Z
2022-02-16T02:49:42Z,42.805,6.029,13.2997,4.60029,2470.32,2022-2-16T04:51:16Z
2022-02-16T02:52:45Z,42.805,6.029,13.3001,4.60029,2470.273,2022-2-16T04:54:19Z
2022-02-16T02:55:49Z,42.805,6.029,13.3000,4.60029,2470.297,2022-2-16T04:57:22Z
2022-02-16T02:58:52Z,42.805,6.029,13.2996,4.60028,2470.273,2022-2-16T05:00:25Z
2022-02-16T03:01:55Z,42.805,6.029,13.2999,4.60030,2470.31,2022-2-16T05:03:28Z
2022-02-16T03:04:58Z,42.805,6.029,13.3000,4.60029,2470.297,2022-2-16T05:06:32Z
2022-02-16T03:08:01Z,42.805,6.029,13.3000,4.60028,2470.32,2022-2-16T05:09:35Z
2022-02-16T03:11:04Z,42.805,6.029,13.3000,4.60029,2470.297,2022-2-16T05:12:38Z
2022-02-16T03:14:07Z,42.805,6.029,13.2998,4.60029,2470.334,2022-2-16T05:15:41Z
2022-02-16T03:17:10Z,42.805,6.029,13.2998,4.60029,2470.32,2022-2-16T05:18:44Z
2022-02-16T03:20:14Z,42.805,6.029,13.3004,4.60031,2470.32,2022-2-16T05:21:47Z
2022-02-16T03:23:17Z,42.805,6.029,13.3004,4.60031,2470.297,2022-2-16T05:24:50Z
2022-02-16T03:26:20Z,42.805,6.029,13.3003,4.60029,2470.334,2022-2-16T05:27:53Z
2022-02-16T03:29:23Z,42.805,6.029,13.2999,4.60030,2470.297,2022-2-16T05:30:57Z
2022-02-16T03:32:26Z,42.805,6.029,13.3003,4.60029,2470.32,2022-2-16T05:34:00Z
2022-02-16T03:35:29Z,42.805,6.029,13.3001,4.60029,2470.32,2022-2-16T05:37:03Z
2022-02-16T03:38:32Z,42.805,6.029,13.3001,4.60028,2470.32,2022-2-16T05:40:06Z
2022-02-16T03:41:35Z,42.805,6.029,13.3003,4.60030,2470.343,2022-2-16T05:43:09Z
2022-02-16T03:44:39Z,42.805,6.029,13.2998,4.60029,2470.32,2022-2-16T05:46:12Z
2022-02-16T03:47:42Z,42.805,6.029,13.3006,4.60029,2470.343,2022-2-16T05:49:15Z
2022-02-16T03:50:45Z,42.805,6.029,13.3002,4.60029,2470.357,2022-2-16T05:52:18Z
2022-02-16T03:53:48Z,42.805,6.029,13.2996,4.60031,2470.366,2022-2-16T05:55:21Z
2022-02-16T03:56:51Z,42.805,6.029,13.3002,4.60029,2470.357,2022-2-16T05:58:25Z
2022-02-16T03:59:54Z,42.805,6.029,13.3004,4.60029,2470.366,2022-2-16T06:01:28Z
2022-02-16T04:02:57Z,42.805,6.029,13.3000,4.60029,2470.343,2022-2-16T06:04:31Z
2022-02-16T04:06:00Z,42.805,6.029,13.2998,4.60029,2470.343,2022-2-16T06:07:34Z
2022-02-16T04:09:04Z,42.805,6.029,13.3003,4.60030,2470.366,2022-2-16T06:10:37Z
2022-02-16T04:12:07Z,42.805,6.029,13.2999,4.60030,2470.357,2022-2-16T06:13:40Z
2022-02-16T04:15:10Z,42.805,6.029,13.3005,4.60029,2470.366,2022-2-16T06:16:43Z
2022-02-16T04:18:13Z,42.805,6.029,13.2999,4.60029,2470.38,2022-2-16T06:19:47Z
2022-02-16T04:21:16Z,42.805,6.029,13.2998,4.60028,2470.366,2022-2-16T06:22:50Z
2022-02-16T04:24:19Z,42.805,6.029,13.3004,4.60032,2470.343,2022-2-16T06:25:53Z
2022-02-16T04:27:22Z,42.805,6.029,13.2999,4.60029,2470.366,2022-2-16T06:28:56Z
2022-02-16T04:30:25Z,42.805,6.029,13.2998,4.60028,2470.366,2022-2-16T06:31:59Z
2022-02-16T04:33:29Z,42.805,6.029,13.3000,4.60028,2470.38,2022-2-16T06:35:02Z
2022-02-16T04:36:32Z,42.805,6.029,13.3000,4.60032,2470.39,2022-2-16T06:38:05Z
2022-02-16T04:39:35Z,42.805,6.029,13.2998,4.60029,2470.39,2022-2-16T06:41:08Z
2022-02-16T04:42:38Z,42.805,6.029,13.3003,4.60029,2470.366,2022-2-16T06:44:11Z
2022-02-16T04:45:41Z,42.805,6.029,13.3001,4.60029,2470.404,2022-2-16T06:47:15Z
2022-02-16T04:48:44Z,42.805,6.029,13.3000,4.60029,2470.39,2022-2-16T06:50:18Z
2022-02-16T04:51:47Z,42.805,6.029,13.3001,4.60028,2470.39,2022-2-16T06:53:21Z
2022-02-16T04:54:50Z,42.805,6.029,13.3001,4.60028,2470.39,2022-2-16T06:56:24Z
2022-02-16T04:57:53Z,42.805,6.029,13.2998,4.60029,2470.39,2022-2-16T06:59:27Z
2022-02-16T05:00:57Z,42.805,6.029,13.3003,4.60029,2470.39,2022-2-16T07:02:30Z
2022-02-16T05:04:00Z,42.805,6.029,13.3004,4.60029,2470.437,2022-2-16T07:05:33Z
2022-02-16T05:07:03Z,42.805,6.029,13.3002,4.60031,2470.413,2022-2-16T07:08:36Z
2022-02-16T05:10:06Z,42.805,6.029,13.3001,4.60029,2470.437,2022-2-16T07:11:40Z
2022-02-16T05:13:09Z,42.805,6.029,13.3001,4.60030,2470.39,2022-2-16T07:14:43Z
2022-02-16T05:16:12Z,42.805,6.029,13.3004,4.60029,2470.404,2022-2-16T07:17:46Z
2022-02-16T05:19:15Z,42.805,6.029,13.3000,4.60029,2470.45,2022-2-16T07:20:49Z
2022-02-16T05:22:18Z,42.805,6.029,13.3001,4.60029,2470.343,2022-2-16T07:23:52Z
2022-02-16T05:25:22Z,42.805,6.029,13.2999,4.60031,2470.39,2022-2-16T07:26:55Z
2022-02-16T05:28:25Z,42.805,6.029,13.3000,4.60029,2470.404,2022-2-16T07:29:58Z
2022-02-16T05:31:28Z,42.805,6.029,13.2998,4.60029,2470.366,2022-2-16T07:33:01Z
2022-02-16T05:34:31Z,42.805,6.029,13.3000,4.60028,2470.38,2022-2-16T07:36:05Z
2022-02-16T05:37:34Z,42.805,6.029,13.2998,4.60029,2470.404,2022-2-16T07:39:08Z
2022-02-16T05:40:37Z,42.805,6.029,13.3002,4.60029,2470.413,2022-2-16T07:42:11Z
2022-02-16T05:43:40Z,42.805,6.029,13.3002,4.60029,2470.404,2022-2-16T07:45:14Z
2022-02-16T05:46:43Z,42.805,6.029,13.3000,4.60029,2470.39,2022-2-16T07:48:17Z
2022-02-16T05:49:47Z,42.805,6.029,13.3001,4.60028,2470.39,2022-2-16T07:51:20Z
2022-02-16T05:52:50Z,42.805,6.029,13.3004,4.60029,2470.413,2022-2-16T07:54:23Z
2022-02-16T05:55:53Z,42.805,6.029,13.3000,4.60027,2470.427,2022-2-16T07:57:26Z
2022-02-16T05:58:56Z,42.805,6.029,13.3006,4.60029,2470.474,2022-2-16T08:00:30Z
2022-02-16T06:01:59Z,42.805,6.029,13.3003,4.60030,2470.404,2022-2-16T08:03:33Z
2022-02-16T06:05:02Z,42.805,6.029,13.3002,4.60029,2470.404,2022-2-16T08:06:36Z
2022-02-16T06:08:05Z,42.805,6.029,13.2998,4.60029,2470.38,2022-2-16T08:09:39Z
2022-02-16T06:11:08Z,42.805,6.029,13.2999,4.60031,2470.39,2022-2-16T08:12:42Z
2022-02-16T06:14:12Z,42.805,6.029,13.3005,4.60029,2470.427,2022-2-16T08:15:45Z
2022-02-16T06:17:15Z,42.805,6.029,13.3000,4.60032,2470.413,2022-2-16T08:18:48Z
2022-02-16T06:20:18Z,42.805,6.029,13.3004,4.60029,2470.437,2022-2-16T08:21:51Z
2022-02-16T06:23:21Z,42.805,6.029,13.3003,4.60031,2470.413,2022-2-16T08:24:54Z
2022-02-16T06:26:24Z,42.805,6.029,13.3001,4.60029,2470.427,2022-2-16T08:27:58Z
2022-02-16T06:29:27Z,42.805,6.029,13.3005,4.60029,2470.427,2022-2-16T08:31:01Z
2022-02-16T06:32:30Z,42.805,6.029,13.3003,4.60031,2470.45,2022-2-16T08:34:04Z
2022-02-16T06:35:33Z,42.805,6.029,13.2998,4.60031,2470.437,2022-2-16T08:37:07Z
2022-02-16T06:38:36Z,42.805,6.029,13.2998,4.60030,2470.413,2022-2-16T08:40:10Z
2022-02-16T06:41:40Z,42.805,6.029,13.2998,4.60031,2470.437,2022-2-16T08:43:13Z
2022-02-16T06:44:43Z,42.805,6.029,13.2999,4.60029,2470.413,2022-2-16T08:46:16Z
2022-02-16T06:47:46Z,42.805,6.029,13.3005,4.60029,2470.427,2022-2-16T08:49:19Z
2022-02-16T06:50:49Z,42.805,6.029,13.3000,4.60031,2470.437,2022-2-16T08:52:23Z
2022-02-16T06:53:52Z,42.805,6.029,13.3004,4.60031,2470.46,2022-2-16T08:55:26Z
2022-02-16T06:56:55Z,42.805,6.029,13.3004,4.60031,2470.46,2022-2-16T08:58:29Z
2022-02-16T06:59:58Z,42.805,6.029,13.3003,4.60031,2470.437,2022-2-16T09:01:32Z
2022-02-16T07:03:01Z,42.805,6.029,13.3004,4.60030,2470.437,2022-2-16T09:04:35Z
2022-02-16T07:06:05Z,42.805,6.029,13.3000,4.60030,2470.474,2022-2-16T09:07:38Z
2022-02-16T07:09:08Z,42.805,6.029,13.3002,4.60029,2470.45,2022-2-16T09:10:41Z
2022-02-16T07:12:11Z,42.805,6.029,13.3000,4.60031,2470.46,2022-2-16T09:13:44Z
2022-02-16T07:15:14Z,42.805,6.029,13.3000,4.60029,2470.497,2022-2-16T09:16:48Z
2022-02-16T07:18:17Z,42.805,6.029,13.3004,4.60031,2470.497,2022-2-16T09:19:51Z
2022-02-16T07:21:20Z,42.805,6.029,13.3001,4.60031,2470.483,2022-2-16T09:22:54Z
2022-02-16T07:24:23Z,42.805,6.029,13.3002,4.60031,2470.474,2022-2-16T09:25:57Z
2022-02-16T07:27:26Z,42.805,6.029,13.3002,4.60030,2470.47,2022-2-16T09:29:00Z
2022-02-16T07:30:30Z,42.805,6.029,13.3000,4.60031,2470.46,2022-2-16T09:32:03Z
2022-02-16T07:33:33Z,42.805,6.029,13.2998,4.60031,2470.474,2022-2-16T09:35:06Z
2022-02-16T07:36:36Z,42.805,6.029,13.2998,4.60029,2470.483,2022-2-16T09:38:09Z
2022-02-16T07:39:39Z,42.805,6.029,13.3002,4.60031,2470.483,2022-2-16T09:41:13Z
2022-02-16T07:42:42Z,42.805,6.029,13.3003,4.60030,2470.483,2022-2-16T09:44:16Z
2022-02-16T07:45:45Z,42.805,6.029,13.3004,4.60031,2470.483,2022-2-16T09:47:19Z
2022-02-16T07:48:48Z,42.805,6.029,13.3001,4.60029,2470.497,2022-2-16T09:50:22Z
2022-02-16T07:51:51Z,42.805,6.029,13.2999,4.60029,2470.497,2022-2-16T09:53:25Z
2022-02-16T07:54:55Z,42.805,6.029,13.2999,4.60031,2470.507,2022-2-16T09:56:28Z
2022-02-16T07:57:58Z,42.805,6.029,13.3006,4.60031,2470.52,2022-2-16T09:59:31Z
2022-02-16T08:01:01Z,42.805,6.029,13.3003,4.60031,2470.497,2022-2-16T10:02:34Z
2022-02-16T08:04:04Z,42.805,6.029,13.2998,4.60031,2470.483,2022-2-16T10:05:38Z
2022-02-16T08:07:07Z,42.805,6.029,13.3001,4.60029,2470.52,2022-2-16T10:08:41Z
2022-02-16T08:10:10Z,42.805,6.029,13.3002,4.60031,2470.437,2022-2-16T10:11:44Z
2022-02-16T08:13:13Z,42.805,6.029,13.3004,4.60029,2470.507,2022-2-16T10:14:47Z
2022-02-16T08:16:16Z,42.805,6.029,13.3000,4.60030,2470.52,2022-2-16T10:17:50Z
2022-02-16T08:19:20Z,42.805,6.029,13.3001,4.60029,2470.52,2022-2-16T10:20:53Z
2022-02-16T08:22:23Z,42.805,6.029,13.3004,4.60029,2470.507,2022-2-16T10:23:56Z
2022-02-16T08:25:26Z,42.805,6.029,13.3003,4.60032,2470.483,2022-2-16T10:26:59Z
2022-02-16T08:28:29Z,42.805,6.029,13.3004,4.60033,2470.52,2022-2-16T10:30:03Z
2022-02-16T08:31:32Z,42.805,6.029,13.3000,4.60029,2470.544,2022-2-16T10:33:06Z
2022-02-16T08:34:35Z,42.805,6.029,13.3004,4.60029,2470.507,2022-2-16T10:36:09Z
2022-02-16T08:37:38Z,42.805,6.029,13.2995,4.60030,2470.52,2022-2-16T10:39:12Z
2022-02-16T08:40:41Z,42.805,6.029,13.2999,4.60029,2470.483,2022-2-16T10:42:15Z
2022-02-16T08:43:45Z,42.805,6.029,13.3002,4.60031,2470.507,2022-2-16T10:45:18Z
2022-02-16T08:46:48Z,42.805,6.029,13.3000,4.60031,2470.497,2022-2-16T10:48:21Z
2022-02-16T08:49:51Z,42.805,6.029,13.3002,4.60029,2470.497,2022-2-16T10:51:24Z
2022-02-16T08:52:54Z,42.805,6.029,13.3002,4.60029,2470.507,2022-2-16T10:54:28Z
2022-02-16T08:55:57Z,42.805,6.029,13.3000,4.60030,2470.483,2022-2-16T10:57:31Z
2022-02-16T08:59:00Z,42.805,6.029,13.3001,4.60029,2470.52,2022-2-16T11:00:34Z
2022-02-16T09:02:03Z,42.805,6.029,13.3000,4.60029,2470.52,2022-2-16T11:03:37Z
2022-02-16T09:05:06Z,42.805,6.029,13.2998,4.60029,2470.52,2022-2-16T11:06:40Z
2022-02-16T09:08:10Z,42.805,6.029,13.2997,4.60029,2470.497,2022-2-16T11:09:43Z
2022-02-16T09:11:13Z,42.805,6.029,13.2999,4.60029,2470.497,2022-2-16T11:12:46Z
2022-02-16T09:14:16Z,42.805,6.029,13.3000,4.60027,2470.507,2022-2-16T11:15:49Z
2022-02-16T09:17:19Z,42.805,6.029,13.3003,4.60031,2470.507,2022-2-16T11:18:53Z
2022-02-16T09:20:22Z,42.805,6.029,13.2998,4.60028,2470.483,2022-2-16T11:21:56Z
2022-02-16T09:23:25Z,42.805,6.029,13.3005,4.60031,2470.483,2022-2-16T11:24:59Z
2022-02-16T09:26:28Z,42.805,6.029,13.3000,4.60029,2470.483,2022-2-16T11:28:02Z
2022-02-16T09:29:31Z,42.805,6.029,13.3003,4.60031,2470.497,2022-2-16T11:31:05Z
2022-02-16T09:32:35Z,42.805,6.029,13.3001,4.60028,2470.544,2022-2-16T11:34:08Z
2022-02-16T09:35:38Z,42.805,6.029,13.2999,4.60028,2470.52,2022-2-16T11:37:11Z
2022-02-16T09:38:41Z,42.805,6.029,13.2996,4.60031,2470.45,2022-2-16T11:40:14Z
2022-02-16T09:41:44Z,42.805,6.029,13.3001,4.60029,2470.483,2022-2-16T11:43:18Z
2022-02-16T09:44:47Z,42.805,6.029,13.3003,4.60029,2470.46,2022-2-16T11:46:21Z
2022-02-16T09:47:50Z,42.805,6.029,13.2999,4.60029,2470.474,2022-2-16T11:49:24Z
2022-02-16T09:50:53Z,42.805,6.029,13.3004,4.60029,2470.483,2022-2-16T11:52:27Z
2022-02-16T09:53:56Z,42.805,6.029,13.3000,4.60029,2470.497,2022-2-16T11:55:30Z
2022-02-16T09:57:00Z,42.805,6.029,13.3004,4.60027,2470.483,2022-2-16T11:58:33Z
2022-02-16T10:00:03Z,42.805,6.029,13.3003,4.60029,2470.497,2022-2-16T12:01:36Z
2022-02-16T10:03:06Z,42.805,6.029,13.2998,4.60028,2470.483,2022-2-16T12:04:39Z
2022-02-16T10:06:09Z,42.805,6.029,13.3001,4.60028,2470.46,2022-2-16T12:07:43Z
2022-02-16T10:09:12Z,42.805,6.029,13.2997,4.60029,2470.46,2022-2-16T12:10:46Z
2022-02-16T10:12:15Z,42.805,6.029,13.2998,4.60029,2470.46,2022-2-16T12:13:49Z
2022-02-16T10:15:18Z,42.805,6.029,13.3000,4.60029,2470.474,2022-2-16T12:16:52Z
2022-02-16T10:18:22Z,42.805,6.029,13.2998,4.60029,2470.497,2022-2-16T12:19:55Z
2022-02-16T10:21:25Z,42.805,6.029,13.3004,4.60029,2470.483,2022-2-16T12:22:58Z
2022-02-16T10:24:28Z,42.805,6.029,13.3002,4.60029,2470.483,2022-2-16T12:26:01Z
2022-02-16T10:27:31Z,42.805,6.029,13.2996,4.60028,2470.497,2022-2-16T12:29:05Z
2022-02-16T10:30:34Z,42.805,6.029,13.3001,4.60027,2470.474,2022-2-16T12:32:08Z
2022-02-16T10:33:37Z,42.805,6.029,13.3001,4.60029,2470.423,2022-2-16T12:35:11Z
2022-02-16T10:36:40Z,42.805,6.029,13.2998,4.60032,2470.483,2022-2-16T12:38:14Z
2022-02-16T10:39:43Z,42.805,6.029,13.3000,4.60028,2470.437,2022-2-16T12:41:17Z
2022-02-16T10:42:47Z,42.805,6.029,13.2998,4.60029,2470.474,2022-2-16T12:44:20Z
2022-02-16T10:45:50Z,42.805,6.029,13.2998,4.60028,2470.46,2022-2-16T12:47:23Z
2022-02-16T10:48:53Z,42.805,6.029,13.2998,4.60028,2470.46,2022-2-16T12:50:26Z
2022-02-16T10:51:56Z,42.805,6.029,13.3001,4.60029,2470.46,2022-2-16T12:53:30Z
2022-02-16T10:54:59Z,42.805,6.029,13.3007,4.60028,2470.46,2022-2-16T12:56:33Z
2022-02-16T10:58:02Z,42.805,6.029,13.3000,4.60027,2470.437,2022-2-16T12:59:36Z
2022-02-16T11:01:05Z,42.805,6.029,13.3001,4.60029,2470.45,2022-2-16T13:02:39Z
2022-02-16T11:04:08Z,42.805,6.029,13.3002,4.60029,2470.474,2022-2-16T13:05:42Z
2022-02-16T11:07:12Z,42.805,6.029,13.3001,4.60029,2470.413,2022-2-16T13:08:45Z
2022-02-16T11:10:15Z,42.805,6.029,13.3000,4.60027,2470.437,2022-2-16T13:11:48Z
2022-02-16T11:13:18Z,42.805,6.029,13.3000,4.60031,2470.437,2022-2-16T13:14:51Z
2022-02-16T11:16:21Z,42.805,6.029,13.3002,4.60029,2470.45,2022-2-16T13:17:55Z
2022-02-16T11:19:24Z,42.805,6.029,13.3002,4.60031,2470.413,2022-2-16T13:20:58Z
2022-02-16T11:22:27Z,42.805,6.029,13.3001,4.60029,2470.45,2022-2-16T13:24:01Z
2022-02-16T11:25:30Z,42.805,6.029,13.3000,4.60028,2470.474,2022-2-16T13:27:04Z
2022-02-16T11:28:33Z,42.805,6.029,13.3004,4.60028,2470.437,2022-2-16T13:30:07Z
2022-02-16T11:31:37Z,42.805,6.029,13.2998,4.60029,2470.46,2022-2-16T13:33:10Z
2022-02-16T11:34:40Z,42.805,6.029,13.3007,4.60029,2470.413,2022-2-16T13:36:13Z
2022-02-16T11:37:43Z,42.805,6.029,13.3003,4.60028,2470.437,2022-2-16T13:39:16Z
2022-02-16T11:40:46Z,42.805,6.029,13.2999,4.60029,2470.437,2022-2-16T13:42:20Z
2022-02-16T11:43:49Z,42.805,6.029,13.3000,4.60029,2470.437,2022-2-16T13:45:23Z
2022-02-16T11:46:52Z,42.805,6.029,13.3000,4.60029,2470.45,2022-2-16T13:48:26Z
2022-02-16T11:49:55Z,42.805,6.029,13.2999,4.60029,2470.437,2022-2-16T13:51:29Z
2022-02-16T11:52:58Z,42.805,6.029,13.3001,4.60029,2470.413,2022-2-16T13:54:32Z
2022-02-16T11:56:02Z,42.805,6.029,13.3000,4.60029,2470.437,2022-2-16T13:57:35Z
2022-02-16T11:59:05Z,42.805,6.029,13.3004,4.60029,2470.427,2022-2-16T14:00:38Z
2022-02-16T12:02:08Z,42.805,6.029,13.2999,4.60029,2470.413,2022-2-16T14:03:41Z
2022-02-16T12:05:11Z,42.805,6.029,13.3005,4.60030,2470.427,2022-2-16T14:06:45Z
2022-02-16T12:08:14Z,42.805,6.029,13.2998,4.60028,2470.45,2022-2-16T14:09:48Z
2022-02-16T12:11:17Z,42.805,6.029,13.3002,4.60027,2470.39,2022-2-16T14:12:51Z
2022-02-16T12:14:20Z,42.805,6.029,13.3000,4.60027,2470.413,2022-2-16T14:15:54Z
2022-02-16T12:17:23Z,42.805,6.029,13.2996,4.60028,2470.39,2022-2-16T14:18:57Z
2022-02-16T12:20:27Z,42.805,6.029,13.3001,4.60030,2470.413,2022-2-16T14:22:00Z
2022-02-16T12:23:30Z,42.805,6.029,13.3001,4.60029,2470.366,2022-2-16T14:25:03Z
2022-02-16T12:26:33Z,42.805,6.029,13.2999,4.60030,2470.39,2022-2-16T14:28:06Z
2022-02-16T12:29:36Z,42.805,6.029,13.3003,4.60031,2470.366,2022-2-16T14:31:10Z
2022-02-16T12:32:39Z,42.805,6.029,13.2999,4.60030,2470.404,2022-2-16T14:34:13Z
2022-02-16T12:35:42Z,42.805,6.029,13.3006,4.60029,2470.404,2022-2-16T14:37:16Z
2022-02-16T12:38:45Z,42.805,6.029,13.3000,4.60031,2470.39,2022-2-16T14:40:19Z
2022-02-16T12:41:49Z,42.805,6.029,13.3003,4.60031,2470.38,2022-2-16T14:43:22Z
2022-02-16T12:44:52Z,42.805,6.029,13.3003,4.60029,2470.39,2022-2-16T14:46:25Z
2022-02-16T12:47:55Z,42.805,6.029,13.3003,4.60029,2470.39,2022-2-16T14:49:28Z
2022-02-16T12:50:58Z,42.805,6.029,13.3000,4.60030,2470.376,2022-2-16T14:52:32Z
2022-02-16T12:54:01Z,42.805,6.029,13.2998,4.60032,2470.39,2022-2-16T14:55:35Z
2022-02-16T12:57:04Z,42.805,6.029,13.3004,4.60030,2470.39,2022-2-16T14:58:38Z
2022-02-16T13:00:07Z,42.805,6.029,13.3001,4.60029,2470.366,2022-2-16T15:01:41Z
2022-02-16T13:03:10Z,42.805,6.029,13.3002,4.60030,2470.357,2022-2-16T15:04:44Z
2022-02-16T13:06:14Z,42.805,6.029,13.3000,4.60028,2470.404,2022-2-16T15:07:47Z
2022-02-16T13:09:17Z,42.805,6.029,13.2998,4.60029,2470.413,2022-2-16T15:10:50Z
2022-02-16T13:12:20Z,42.805,6.029,13.2998,4.60030,2470.39,2022-2-16T15:13:53Z
2022-02-16T13:15:23Z,42.805,6.029,13.3000,4.60029,2470.38,2022-2-16T15:16:57Z
2022-02-16T13:18:26Z,42.805,6.029,13.3001,4.60029,2470.39,2022-2-16T15:20:00Z
2022-02-16T13:21:29Z,42.805,6.029,13.2999,4.60031,2470.366,2022-2-16T15:23:03Z
2022-02-16T13:24:32Z,42.805,6.029,13.2998,4.60028,2470.39,2022-2-16T15:26:06Z
2022-02-16T13:27:35Z,42.805,6.029,13.2996,4.60028,2470.404,2022-2-16T15:29:09Z
2022-02-16T13:30:39Z,42.805,6.029,13.3004,4.60028,2470.357,2022-2-16T15:32:12Z
2022-02-16T13:33:42Z,42.805,6.029,13.2999,4.60028,2470.366,2022-2-16T15:35:15Z
2022-02-16T13:36:45Z,42.805,6.029,13.3001,4.60028,2470.353,2022-2-16T15:38:18Z
2022-02-16T13:39:48Z,42.805,6.029,13.3000,4.60033,2470.404,2022-2-16T15:41:22Z
2022-02-16T13:42:51Z,42.805,6.029,13.3004,4.60029,2470.404,2022-2-16T15:44:25Z
2022-02-16T13:45:54Z,42.805,6.029,13.2999,4.60027,2470.39,2022-2-16T15:47:28Z
2022-02-16T13:48:57Z,42.805,6.029,13.3003,4.60029,2470.343,2022-2-16T15:50:31Z
2022-02-16T13:52:00Z,42.805,6.029,13.3005,4.60029,2470.38,2022-2-16T15:53:34Z
2022-02-16T13:55:04Z,42.805,6.029,13.3001,4.60029,2470.33,2022-2-16T15:56:37Z
2022-02-16T13:58:07Z,42.805,6.029,13.3001,4.60028,2470.39,2022-2-16T15:59:40Z
2022-02-16T14:01:10Z,42.805,6.029,13.3003,4.60030,2470.343,2022-2-16T16:02:43Z
2022-02-16T14:04:13Z,42.805,6.029,13.3000,4.60032,2470.366,2022-2-16T16:05:47Z
2022-02-16T14:07:16Z,42.805,6.029,13.3003,4.60028,2470.366,2022-2-16T16:08:50Z
2022-02-16T14:10:19Z,42.805,6.029,13.2998,4.60027,2470.376,2022-2-16T16:11:53Z
2022-02-16T14:13:22Z,42.805,6.029,13.3000,4.60029,2470.39,2022-2-16T16:14:56Z
2022-02-16T14:16:25Z,42.805,6.029,13.2996,4.60033,2470.404,2022-2-16T16:17:59Z
2022-02-16T14:19:29Z,42.805,6.029,13.2998,4.60033,2470.366,2022-2-16T16:21:02Z
2022-02-16T14:22:32Z,42.805,6.029,13.3004,4.60029,2470.404,2022-2-16T16:24:05Z
2022-02-16T14:25:35Z,42.805,6.029,13.3003,4.60029,2470.357,2022-2-16T16:27:08Z
2022-02-16T14:28:38Z,42.805,6.029,13.3002,4.60032,2470.39,2022-2-16T16:30:12Z
2022-02-16T14:31:41Z,42.805,6.029,13.3002,4.60029,2470.38,2022-2-16T16:33:15Z
2022-02-16T14:34:44Z,42.805,6.029,13.3003,4.60029,2470.39,2022-2-16T16:36:18Z
2022-02-16T14:37:47Z,42.805,6.029,13.3000,4.60029,2470.39,2022-2-16T16:39:21Z
2022-02-16T14:40:50Z,42.805,6.029,13.3000,4.60028,2470.366,2022-2-16T16:42:24Z
2022-02-16T14:43:54Z,42.805,6.029,13.3002,4.60029,2470.366,2022-2-16T16:45:27Z
2022-02-16T14:46:57Z,42.805,6.029,13.2998,4.60029,2470.357,2022-2-16T16:48:30Z
2022-02-16T14:50:00Z,42.805,6.029,13.3000,4.60031,2470.366,2022-2-16T16:51:33Z
2022-02-16T14:53:03Z,42.805,6.029,13.3006,4.60030,2470.39,2022-2-16T16:54:37Z
2022-02-16T14:56:06Z,42.805,6.029,13.3002,4.60028,2470.39,2022-2-16T16:57:40Z
2022-02-16T14:59:09Z,42.805,6.029,13.3002,4.60029,2470.38,2022-2-16T17:00:43Z
2022-02-16T15:02:12Z,42.805,6.029,13.3000,4.60032,2470.404,2022-2-16T17:03:46Z
2022-02-16T15:05:15Z,42.805,6.029,13.3003,4.60031,2470.353,2022-2-16T17:06:49Z
2022-02-16T15:08:19Z,42.805,6.029,13.2999,4.60031,2470.343,2022-2-16T17:09:52Z
2022-02-16T15:11:22Z,42.805,6.029,13.3004,4.60031,2470.38,2022-2-16T17:12:55Z
2022-02-16T15:14:25Z,42.805,6.029,13.2998,4.60031,2470.38,2022-2-16T17:15:59Z